User: anonymous   Login
Location: Unspecified
(0.0000°N, 0.0000°E)
Time: 23:20:04
(UTC+00:00)
Language:

ESTCUBE 1 - Orbit

View from above orbital plane
View from above orbital plane
View from above satellite
View from above satellite

Ground track
Ground track

The orbit data is extracted from the following two-line orbital elements,

1 39161U 13021C   17141.82226280 +.00000194 +00000-0 +38933-4 0  9995
2 39161 098.0275 228.1675 0008520 219.9833 140.0746 14.71884384216878
Epoch (UTC): 21 May 2017 19:44:03
Eccentricity: 0.0008520
inclination: 98.0275°
perigee height: 649 km
apogee height: 661 km
right ascension of ascending node: 228.1675°
argument of perigee: 219.9833°
revolutions per day: 14.71884384
mean anomaly at epoch: 140.0746°
orbit number at epoch: 21687

The dashed part of the orbit path shows where the satellite is in the earth's shadow,  

DLR